Time,TemperatureF,DewpointF,PressureIn,WindDirection,WindDirectionDegrees,WindSpeedMPH,WindSpeedGustMPH,Humidity,HourlyPrecipIn,Conditions,Clouds,dailyrainin,SoftwareType,DateUTC
2013-12-08 00:12:00,44.6,35.8,30.17,ESE,112,3.1,-999.0,71,-99.99,,,0.00,Acu-Link.com,2013-12-08 05:12:00,
2013-12-08 00:27:00,44.6,36.1,30.17,North,0,2.7,-999.0,72,-99.99,,,0.00,Acu-Link.com,2013-12-08 05:27:00,
2013-12-08 00:42:00,44.6,36.5,30.16,ESE,112,1.6,-999.0,73,-99.99,,,0.00,Acu-Link.com,2013-12-08 05:42:00,
2013-12-08 00:57:00,44.6,36.5,30.18,NW,315,4.7,-999.0,73,-99.99,,,0.00,Acu-Link.com,2013-12-08 05:57:00,
2013-12-08 01:12:00,44.6,35.8,30.17,SE,135,2.7,-999.0,71,-99.99,,,0.00,Acu-Link.com,2013-12-08 06:12:00,
2013-12-08 01:28:00,44.6,35.4,30.17,East,90,5.1,-999.0,70,-99.99,,,0.00,Acu-Link.com,2013-12-08 06:28:00,
2013-12-08 01:43:00,44.6,35.8,30.17,West,270,2.0,-999.0,71,-99.99,,,0.00,Acu-Link.com,2013-12-08 06:43:00,
2013-12-08 01:58:00,44.6,35.8,30.16,SSE,157,3.1,-999.0,71,-99.99,,,0.00,Acu-Link.com,2013-12-08 06:58:00,
2013-12-08 02:13:00,42.8,34.1,30.15,NNW,337,8.3,-999.0,71,-99.99,,,0.00,Acu-Link.com,2013-12-08 07:13:00,
2013-12-08 02:28:00,42.8,34.8,30.16,NE,45,3.1,-999.0,73,-99.99,,,0.00,Acu-Link.com,2013-12-08 07:28:00,
2013-12-08 02:43:00,42.8,34.8,30.15,NNE,22,2.7,-999.0,73,-99.99,,,0.00,Acu-Link.com,2013-12-08 07:43:00,
2013-12-08 02:58:00,42.8,34.8,30.15,ESE,112,2.0,-999.0,73,-99.99,,,0.00,Acu-Link.com,2013-12-08 07:58:00,
2013-12-08 03:14:00,42.8,34.8,30.15,NE,45,2.7,-999.0,73,-99.99,,,0.00,Acu-Link.com,2013-12-08 08:14:00,
2013-12-08 03:29:00,42.8,35.1,30.15,SSE,157,2.0,-999.0,74,-99.99,,,0.00,Acu-Link.com,2013-12-08 08:29:00,
2013-12-08 03:44:00,42.8,34.8,30.16,NW,315,6.3,-999.0,73,-99.99,,,0.00,Acu-Link.com,2013-12-08 08:44:00,
2013-12-08 03:59:00,42.8,34.1,30.14,SW,225,1.1,-999.0,71,-99.99,,,0.00,Acu-Link.com,2013-12-08 08:59:00,
2013-12-08 04:14:00,42.8,34.8,30.13,WNW,292,3.6,-999.0,73,-99.99,,,0.00,Acu-Link.com,2013-12-08 09:14:00,
2013-12-08 04:30:00,42.8,33.7,30.14,ESE,112,2.7,-999.0,70,-99.99,,,0.00,Acu-Link.com,2013-12-08 09:30:00,
2013-12-08 04:45:00,42.8,33.7,30.15,SE,135,1.6,-999.0,70,-99.99,,,0.00,Acu-Link.com,2013-12-08 09:45:00,
2013-12-08 05:00:00,42.8,33.7,30.15,NNE,22,3.1,-999.0,70,-99.99,,,0.00,Acu-Link.com,2013-12-08 10:00:00,
2013-12-08 05:15:00,41.0,31.6,30.15,North,0,3.6,-999.0,69,-99.99,,,0.00,Acu-Link.com,2013-12-08 10:15:00,
2013-12-08 05:30:00,41.0,30.5,30.15,SE,135,6.3,-999.0,66,-99.99,,,0.00,Acu-Link.com,2013-12-08 10:30:00,
2013-12-08 05:45:00,41.0,30.5,30.16,ESE,112,8.3,-999.0,66,-99.99,,,0.00,Acu-Link.com,2013-12-08 10:45:00,
2013-12-08 06:01:00,41.0,30.9,30.16,ENE,67,2.0,-999.0,67,-99.99,,,0.00,Acu-Link.com,2013-12-08 11:01:00,
2013-12-08 06:16:00,41.0,31.6,30.17,West,270,3.1,-999.0,69,-99.99,,,0.00,Acu-Link.com,2013-12-08 11:16:00,
2013-12-08 06:31:00,41.0,32.0,30.17,NNW,337,6.3,-999.0,70,-99.99,,,0.00,Acu-Link.com,2013-12-08 11:31:00,
2013-12-08 06:46:00,39.2,31.3,30.17,SSE,157,5.1,-999.0,73,-99.99,,,0.00,Acu-Link.com,2013-12-08 11:46:00,
2013-12-08 07:01:00,39.2,32.0,30.18,NNE,22,1.6,-999.0,75,-99.99,,,0.00,Acu-Link.com,2013-12-08 12:01:00,
2013-12-08 07:17:00,37.4,31.5,30.18,ESE,112,3.6,-999.0,79,-99.99,,,0.00,Acu-Link.com,2013-12-08 12:17:00,
2013-12-08 07:32:00,37.4,33.0,30.18,ESE,112,1.6,-999.0,84,-99.99,,,0.01,Acu-Link.com,2013-12-08 12:32:00,
2013-12-08 07:47:00,35.6,32.1,30.18,NNW,337,0.0,-999.0,87,-99.99,,,0.07,Acu-Link.com,2013-12-08 12:47:00,
2013-12-08 08:02:00,35.6,32.4,30.16,WNW,292,2.7,-999.0,88,-99.99,,,0.14,Acu-Link.com,2013-12-08 13:02:00,
2013-12-08 08:17:00,35.6,32.7,30.17,WNW,292,3.1,-999.0,89,-99.99,,,0.14,Acu-Link.com,2013-12-08 13:17:00,
2013-12-08 08:32:00,35.6,32.7,30.18,NNW,337,3.1,-999.0,89,-99.99,,,0.14,Acu-Link.com,2013-12-08 13:32:00,
2013-12-08 08:48:00,35.6,32.1,30.20,SE,135,4.7,-999.0,87,-99.99,,,0.14,Acu-Link.com,2013-12-08 13:48:00,
2013-12-08 09:03:00,35.6,32.7,30.19,North,0,1.6,-999.0,89,-99.99,,,0.15,Acu-Link.com,2013-12-08 14:03:00,
2013-12-08 09:18:00,33.8,30.9,30.19,NE,45,2.0,-999.0,89,-99.99,,,0.18,Acu-Link.com,2013-12-08 14:18:00,
2013-12-08 09:33:00,35.6,33.0,30.18,NNE,22,3.6,-999.0,90,-99.99,,,0.19,Acu-Link.com,2013-12-08 14:33:00,
2013-12-08 09:49:00,35.6,32.7,30.18,NNW,337,5.6,-999.0,89,-99.99,,,0.20,Acu-Link.com,2013-12-08 14:49:00,
2013-12-08 10:04:00,33.8,30.9,30.18,NNE,22,2.7,-999.0,89,-99.99,,,0.20,Acu-Link.com,2013-12-08 15:04:00,
2013-12-08 10:19:00,35.6,32.7,49.38,NNE,22,1.1,-999.0,89,-99.99,,,0.20,Acu-Link.com,2013-12-08 15:19:00,
2013-12-08 10:34:00,35.6,33.0,30.20,NNE,22,6.3,-999.0,90,-99.99,,,0.20,Acu-Link.com,2013-12-08 15:34:00,
2013-12-08 10:50:00,35.6,32.7,30.20,NNW,337,4.0,-999.0,89,-99.99,,,0.20,Acu-Link.com,2013-12-08 15:50:00,
2013-12-08 11:05:00,33.8,31.2,30.20,East,90,5.6,-999.0,90,-99.99,,,0.20,Acu-Link.com,2013-12-08 16:05:00,
2013-12-08 11:20:00,35.6,33.2,30.19,NE,45,1.1,-999.0,91,-99.99,,,0.20,Acu-Link.com,2013-12-08 16:20:00,
2013-12-08 11:35:00,33.8,31.2,30.18,NNE,22,4.0,-999.0,90,-99.99,,,0.20,Acu-Link.com,2013-12-08 16:35:00,
2013-12-08 11:50:00,35.6,33.0,30.18,ENE,67,2.7,-999.0,90,-99.99,,,0.20,Acu-Link.com,2013-12-08 16:50:00,
2013-12-08 12:05:00,35.6,33.0,30.18,North,0,2.7,-999.0,90,-99.99,,,0.20,Acu-Link.com,2013-12-08 17:05:00,
2013-12-08 12:21:00,35.6,33.2,30.17,NW,315,4.7,-999.0,91,-99.99,,,0.21,Acu-Link.com,2013-12-08 17:21:00,
2013-12-08 12:36:00,35.6,33.2,30.15,North,0,3.6,-999.0,91,-99.99,,,0.21,Acu-Link.com,2013-12-08 17:36:00,
2013-12-08 12:51:00,35.6,33.2,30.15,North,0,3.1,-999.0,91,-99.99,,,0.21,Acu-Link.com,2013-12-08 17:51:00,
2013-12-08 13:06:00,35.6,33.0,30.16,East,90,2.0,-999.0,90,-99.99,,,0.21,Acu-Link.com,2013-12-08 18:06:00,
2013-12-08 13:21:00,35.6,33.2,30.14,NNE,22,2.0,-999.0,91,-99.99,,,0.21,Acu-Link.com,2013-12-08 18:21:00,
2013-12-08 13:36:00,35.6,33.2,30.14,NW,315,3.1,-999.0,91,-99.99,,,0.21,Acu-Link.com,2013-12-08 18:36:00,
2013-12-08 13:51:00,35.6,33.2,30.13,NE,45,2.0,-999.0,91,-99.99,,,0.21,Acu-Link.com,2013-12-08 18:51:00,
2013-12-08 14:07:00,33.8,31.2,30.12,NNE,22,2.7,-999.0,90,-99.99,,,0.21,Acu-Link.com,2013-12-08 19:07:00,
2013-12-08 14:22:00,35.6,33.0,30.12,SE,135,2.7,-999.0,90,-99.99,,,0.21,Acu-Link.com,2013-12-08 19:22:00,
2013-12-08 14:37:00,35.6,33.2,30.11,NE,45,2.7,-999.0,91,-99.99,,,0.21,Acu-Link.com,2013-12-08 19:37:00,
2013-12-08 14:52:00,33.8,31.5,30.11,NE,45,2.0,-999.0,91,-99.99,,,0.21,Acu-Link.com,2013-12-08 19:52:00,
2013-12-08 15:07:00,33.8,31.5,30.11,NE,45,3.6,-999.0,91,-99.99,,,0.21,Acu-Link.com,2013-12-08 20:07:00,
2013-12-08 15:22:00,33.8,31.5,30.11,SSE,157,4.7,-999.0,91,-99.99,,,0.21,Acu-Link.com,2013-12-08 20:22:00,
2013-12-08 15:38:00,33.8,31.7,30.11,East,90,2.7,-999.0,92,-99.99,,,0.21,Acu-Link.com,2013-12-08 20:38:00,
2013-12-08 15:53:00,33.8,31.7,30.10,West,270,1.1,-999.0,92,-99.99,,,0.21,Acu-Link.com,2013-12-08 20:53:00,
2013-12-08 16:08:00,33.8,32.0,30.10,South,180,0.0,-999.0,93,-99.99,,,0.21,Acu-Link.com,2013-12-08 21:08:00,
2013-12-08 16:23:00,33.8,32.3,30.10,East,90,1.6,-999.0,94,-99.99,,,0.21,Acu-Link.com,2013-12-08 21:23:00,
2013-12-08 16:39:00,33.8,32.3,30.10,ENE,67,1.6,-999.0,94,-99.99,,,0.22,Acu-Link.com,2013-12-08 21:39:00,
2013-12-08 16:54:00,33.8,32.3,30.11,ESE,112,3.1,-999.0,94,-99.99,,,0.24,Acu-Link.com,2013-12-08 21:54:00,
2013-12-08 17:09:00,33.8,32.3,30.11,ENE,67,2.0,-999.0,94,-99.99,,,0.24,Acu-Link.com,2013-12-08 22:09:00,
2013-12-08 17:24:00,33.8,32.5,30.10,ESE,112,1.1,-999.0,95,-99.99,,,0.25,Acu-Link.com,2013-12-08 22:24:00,
2013-12-08 17:39:00,33.8,32.8,30.10,SSE,157,2.0,-999.0,96,-99.99,,,0.25,Acu-Link.com,2013-12-08 22:39:00,
2013-12-08 17:54:00,33.8,32.8,30.09,NW,315,2.7,-999.0,96,-99.99,,,0.25,Acu-Link.com,2013-12-08 22:54:00,
2013-12-08 18:09:00,33.8,33.0,30.08,NNW,337,6.3,-999.0,97,-99.99,,,0.25,Acu-Link.com,2013-12-08 23:09:00,
2013-12-08 18:25:00,33.8,33.0,30.10,East,90,2.7,-999.0,97,-99.99,,,0.25,Acu-Link.com,2013-12-08 23:25:00,
2013-12-08 18:40:00,33.8,33.0,30.10,ENE,67,0.0,-999.0,97,-99.99,,,0.25,Acu-Link.com,2013-12-08 23:40:00,
2013-12-08 18:55:00,33.8,33.0,30.10,NNW,337,3.1,-999.0,97,-99.99,,,0.25,Acu-Link.com,2013-12-08 23:55:00,
2013-12-08 19:10:00,33.8,33.0,30.10,East,90,1.1,-999.0,97,-99.99,,,0.25,Acu-Link.com,2013-12-09 00:10:00,
2013-12-08 19:26:00,33.8,33.0,30.10,East,90,2.0,-999.0,97,-99.99,,,0.25,Acu-Link.com,2013-12-09 00:26:00,
2013-12-08 19:41:00,33.8,33.0,30.11,ESE,112,0.0,-999.0,97,-99.99,,,0.25,Acu-Link.com,2013-12-09 00:41:00,
2013-12-08 19:56:00,33.8,33.0,30.10,NE,45,0.0,-999.0,97,-99.99,,,0.25,Acu-Link.com,2013-12-09 00:56:00,
2013-12-08 20:11:00,33.8,33.3,30.10,WSW,247,0.0,-999.0,98,-99.99,,,0.25,Acu-Link.com,2013-12-09 01:11:00,
2013-12-08 20:26:00,33.8,33.3,30.10,WNW,292,1.6,-999.0,98,-99.99,,,0.25,Acu-Link.com,2013-12-09 01:26:00,
2013-12-08 20:42:00,33.8,33.3,30.11,NE,45,2.7,-999.0,98,-99.99,,,0.25,Acu-Link.com,2013-12-09 01:42:00,
2013-12-08 20:57:00,33.8,33.3,30.10,ESE,112,2.7,-999.0,98,-99.99,,,0.25,Acu-Link.com,2013-12-09 01:57:00,
2013-12-08 21:12:00,33.8,33.3,30.09,SSW,202,4.0,-999.0,98,-99.99,,,0.25,Acu-Link.com,2013-12-09 02:12:00,
2013-12-08 21:27:00,33.8,33.5,30.09,ENE,67,2.0,-999.0,99,-99.99,,,0.25,Acu-Link.com,2013-12-09 02:27:00,
2013-12-08 21:43:00,33.8,33.5,30.10,ESE,112,2.0,-999.0,99,-99.99,,,0.25,Acu-Link.com,2013-12-09 02:43:00,
2013-12-08 21:58:00,33.8,33.5,30.10,NE,45,0.0,-999.0,99,-99.99,,,0.25,Acu-Link.com,2013-12-09 02:58:00,
2013-12-08 22:13:00,33.8,33.5,30.09,SSE,157,1.1,-999.0,99,-99.99,,,0.25,Acu-Link.com,2013-12-09 03:13:00,
2013-12-08 22:29:00,33.8,33.5,30.09,East,90,1.6,-999.0,99,-99.99,,,0.25,Acu-Link.com,2013-12-09 03:29:00,
2013-12-08 22:44:00,33.8,33.5,30.08,NW,315,1.1,-999.0,99,-99.99,,,0.25,Acu-Link.com,2013-12-09 03:44:00,
2013-12-08 22:59:00,33.8,33.5,30.07,SSE,157,2.0,-999.0,99,-99.99,,,0.25,Acu-Link.com,2013-12-09 03:59:00,
2013-12-08 23:15:00,33.8,33.5,30.07,North,0,2.0,-999.0,99,-99.99,,,0.25,Acu-Link.com,2013-12-09 04:15:00,
2013-12-08 23:30:00,33.8,33.5,30.07,ESE,112,1.1,-999.0,99,-99.99,,,0.25,Acu-Link.com,2013-12-09 04:30:00,
2013-12-08 23:45:00,33.8,33.5,30.07,NNW,337,2.0,-999.0,99,-99.99,,,0.25,Acu-Link.com,2013-12-09 04:45:00,